This demonstration page uses our WeatherBlox Daily Observations layout. Learn more.

38.80484, -77.04692

Hourly Observations for November 5, 2019

Temp ( °F °C ) Dew Point ( °F °C ) Humidity (%) Winds ( mph kmh ) Pressure ( in mb ) Visibility ( mi km ) Precip ( " mm )
12:52 am 00:52 Partly Cloudy 48 8.9 44 6.7 86 86 WSW 3 6 30.24 1024 10 16.0934 0 0
1:52 am 01:52 Partly Cloudy 47 8.3 43 6.1 86 86 Calm 30.23 1024 10 16.0934 0 0
2:52 am 02:52 Partly Cloudy 45 7.2 43 6.1 93 93 Calm 30.22 1023 10 16.0934 0 0
3:52 am 03:52 Partly Cloudy 46 7.8 43 6.1 89 89 Calm 30.21 1023 10 16.0934 0 0
4:52 am 04:52 Partly Cloudy 45 7.2 42 5.6 90 90 Calm 30.22 1023 10 16.0934 0 0
5:52 am 05:52 Partly Cloudy 45 7.2 43 6.1 93 93 SW 5 7 30.2 1023 10 16.0934 0 0
6:52 am 06:52 Partly Cloudy 45 7.2 43 6.1 93 93 SW 5 7 30.2 1023 10 16.0934 0 0
7:52 am 07:52 Partly Cloudy 48 8.9 44 6.7 86 86 SW 5 7 30.21 1023 10 16.0934 0 0
9:52 am 09:52 Mostly Cloudy 53 11.7 44 6.7 72 72 S 9 15 30.2 1023 10 16.0934 0 0
10:52 am 10:52 Mostly Cloudy 55 12.8 45 7.2 69 69 SSE 7 11 30.19 1023 10 16.0934 0 0
11:52 am 11:52 Mostly Cloudy 58 14.4 43 6.1 58 58 S 5 7 30.18 1022 10 16.0934 0 0
12:52 pm 12:52 Mostly Cloudy 61 16.1 44 6.7 54 54 S 8 13 30.16 1021 10 16.0934 0 0
1:52 pm 13:52 Mostly Cloudy 63 17.2 42 5.6 47 47 SSE 7 11 30.16 1021 10 16.0934 0 0
2:52 pm 14:52 Mostly Cloudy 62 16.7 42 5.6 48 48 S 7 11 30.16 1021 10 16.0934 0 0
3:52 pm 15:52 Mostly Cloudy 63 17.2 41 5 45 45 S 7 11 30.16 1021 10 16.0934 0 0
4:52 pm 16:52 Mostly Cloudy 60 15.6 42 5.6 52 52 S 7 11 30.17 1022 10 16.0934 0 0
5:52 pm 17:52 Mostly Cloudy 58 14.4 42 5.6 56 56 SSE 3 6 30.17 1022 10 16.0934 0 0
6:52 pm 18:52 Partly Cloudy 55 12.8 46 7.8 72 72 Calm 30.19 1022 10 16.0934 0 0
7:52 pm 19:52 Partly Cloudy 53 11.7 46 7.8 77 77 NE 3 6 30.19 1023 10 16.0934 0 0
8:52 pm 20:52 Mostly Cloudy 53 11.7 42 5.6 66 66 NNW 6 9 30.22 1024 10 16.0934 0 0
9:52 pm 21:52 Mostly Cloudy 51 10.6 40 4.4 66 66 N 8 13 30.24 1024 10 16.0934 0 0
10:52 pm 22:52 Partly Cloudy 52 11.1 40 4.4 64 64 NNW 7 11 30.27 1025 10 16.0934 0 0
11:52 pm 23:52 Mostly Clear 51 10.6 40 4.4 66 66 N 7 11 30.27 1025 10 16.0934 0 0

Powered by AerisWeather